Location: Cleveland
(41.4990°N, 81.6960°W)
Time: 10:15:02
(UTC-04:00)

Envisat - Visible Passes

Search period start: 23 September 2021 00:00
Search period end: 03 October 2021 00:00
Orbit: 764 x 766 km, 98.2° (Epoch: 22 September)

Date Brightness Start Highest point End Pass type
(mag) Time Alt. Az. Time Alt. Az. Time Alt. Az.
23 Sep 4.0 06:15:14 10° NNE 06:20:11 49° E 06:25:04 10° S visible
24 Sep 5.5 05:39:09 10° NE 05:43:06 22° E 05:47:01 10° SE visible
25 Sep 3.1 06:40:26 10° NNE 06:45:33 87° ESE 06:50:38 10° SSW visible
26 Sep 4.5 06:03:52 10° NNE 06:08:37 38° E 06:13:19 10° SSE visible
27 Sep 5.8 05:28:08 10° NE 05:31:29 18° E 05:34:50 10° SE visible
28 Sep 3.4 06:28:57 10° NNE 06:34:02 68° ESE 06:39:04 10° S visible
29 Sep 5.0 05:52:34 10° NE 05:57:02 30° E 06:01:29 10° SSE visible
30 Sep 6.0 05:17:20 10° ENE 05:19:51 14° E 05:22:20 10° ESE visible
30 Sep 3.0 06:54:17 10° N 06:59:21 69° WNW 07:04:23 10° SSW visible
01 Oct 3.9 06:17:30 10° NNE 06:22:29 53° E 06:27:26 10° S visible
02 Oct 5.4 05:41:21 10° NE 05:45:26 24° E 05:49:30 10° SSE visible
